Location: Bonaustraße
(48.4603°N, 11.9280°E)
Time: 06:55:51
(UTC+01:00)

X-37B - Pass Details

Date: 26 January 2021
Orbit: 383 x 391 km, 45.0° (Epoch: 27 February)

Event Time Altitude Azimuth Distance (km) Brightness Sun altitude
Rises 19:05:28 0° 268° (W) 2,274 6.1 -20.4°
Reaches altitude 10° 19:07:37 10° 260° (W) 1,419 4.6 -20.7°
Enters shadow 19:10:26 37° 200° (SSW) 627 1.8 -21.2°
